Zurück zum Katalog

STARLINK-36392

AktivKommunikationSSO
NORAD 68115·PAYLOAD·🇺🇸 United States

Gestartet Mar 8, 2026 von Vandenberg Space Force Base

Loading…

Nächste Überflüge (nächste 24 Stunden)

TLE

AktuellSource: CelesTrak SupGP

Epoche: Sep 14, 2026, 23:14 UTC

1 68115C 26044Q   26257.96854167 -.00054619  00000+0 -16957-2 0  2578
2 68115  97.2849 217.0076 0001735  89.4967 164.9023 15.33463438    10

Verfolge STARLINK-36392 in Echtzeit mit AllMySat

Download on the App Store